Wind_Speed
33 32 33 37 38 38 39 37 35 35 37 36 33 29 32 37 34 31 31 32 31 30 30 28 27 28 30 31 33 37 41 41 43 45 46 46 46 48 49 50 47 48 53 56
33 30 35 36 37 37 37 35 37 35 36 39 35 30 27 33 36 33 33 35 31 29 28 27 26 29 29 33 34 37 42 46 46 47 48 48 48 47 46 46 47 49 50 54
36 31 35 35 35 35 36 35 35 36 37 37 36 35 31 30 34 33 32 34 29 27 28 27 27 30 32 33 33 36 39 41 47 52 51 49 46 49 50 49 49 46 49 55
39 34 38 38 36 35 35 36 38 36 34 35 36 41 31 29 35 34 32 31 31 30 29 28 27 30 33 34 33 36 40 44 46 50 53 52 50 50 51 55 55 56 54 57
33 35 38 41 38 37 36 37 36 36 36 37 34 43 31 30 36 31 31 30 32 33 31 29 29 30 33 36 38 40 43 45 49 52 53 55 53 53 53 51 52 54 56 55
31 33 40 38 38 37 37 37 36 38 38 40 27 40 36 32 36 33 34 33 36 33 31 31 32 33 36 38 40 45 47 48 52 54 55 55 52 51 51 51 51 53 55 57
33 33 33 39 38 38 39 37 38 40 40 39 31 38 33 33 31 32 33 34 32 30 30 31 34 36 37 39 43 46 48 50 53 55 53 54 52 48 49 48 49 52 55 58
34 31 34 37 40 36 40 42 40 40 40 38 32 37 35 32 34 35 35 32 28 29 30 31 34 36 36 40 44 47 49 51 53 55 52 51 50 49 49 49 50 53 55 58
33 38 31 38 42 39 41 43 35 41 40 40 36 35 37 37 37 36 31 27 29 31 30 31 31 31 36 41 44 48 49 50 52 51 46 46 48 48 45 45 47 50 54 55
41 40 36 39 41 43 44 43 41 42 43 41 39 34 33 37 36 29 29 29 30 29 29 29 27 33 37 40 42 47 50 51 52 51 46 47 46 45 45 45 47 49 52 54
43 47 44 40 41 45 44 44 43 42 44 43 40 36 34 37 34 33 31 30 32 31 29 28 28 36 37 40 43 47 51 52 53 50 47 46 44 46 46 46 48 50 51 49
49 52 50 49 45 42 48 46 46 50 48 42 42 41 37 36 36 33 32 37 35 30 29 28 35 36 38 41 44 46 50 51 53 51 47 46 45 46 47 46 49 49 49 45
54 59 55 53 52 47 48 52 49 49 48 48 47 44 36 35 35 36 38 41 33 28 29 33 37 38 38 42 45 46 50 53 54 52 47 45 45 46 46 45 48 47 47 41
60 65 63 60 53 52 51 50 50 47 53 51 49 43 40 33 37 40 44 43 31 29 32 37 38 38 38 43 43 47 51 54 55 52 46 45 46 47 47 46 49 45 45 37
64 64 62 58 57 61 57 54 52 53 53 56 47 45 40 37 38 41 46 40 33 33 36 38 38 35 40 42 42 48 53 55 56 49 45 47 47 48 47 46 46 45 44 35
64 64 61 64 56 65 65 58 58 55 55 55 54 46 39 35 38 41 41 39 37 36 38 38 36 37 41 41 44 49 55 56 54 46 46 49 48 48 47 45 43 44 41 34
64 61 60 66 63 64 73 57 55 59 59 57 53 44 42 43 41 43 42 39 36 36 36 36 36 39 42 43 47 51 56 56 50 46 50 51 49 48 47 45 44 43 40 32
64 64 66 70 67 69 59 54 61 56 56 55 53 50 44 39 39 40 38 36 37 35 36 37 36 41 42 47 47 52 55 52 44 49 53 53 51 51 50 49 48 45 39 28
63 66 64 48 73 63 54 48 44 53 50 51 52 49 42 41 40 39 37 37 37 35 36 35 37 42 43 44 48 52 53 45 45 52 55 53 53 53 51 48 46 38 32 23
66 68 73 69 53 62 42 38 38 39 41 42 44 44 42 42 43 40 38 38 35 36 36 36 39 43 46 45 49 53 47 41 47 57 56 52 53 46 44 48 44 34 25 23
47 62 74 66 60 55 46 42 41 44 29 31 34 39 42 40 39 38 38 37 36 36 37 37 41 42 45 46 51 51 42 43 51 55 48 48 42 40 48 43 26 23 21 20
38 51 45 68 76 59 47 43 46 40 39 34 39 40 37 39 38 37 37 36 35 36 37 36 41 43 44 47 50 44 39 44 50 46 43 36 36 38 40 20 7 9 13 15
31 38 52 55 39 42 49 50 37 41 42 36 35 36 36 34 35 36 35 34 35 35 33 34 39 43 43 47 45 37 39 45 43 38 37 32 27 31 21 18 11 2 7 11
32 23 51 49 43 43 47 49 48 50 42 39 41 38 33 30 33 32 34 34 34 31 29 32 37 37 41 44 39 34 39 43 37 33 32 29 28 22 16 14 5 4 13 12
27 35 43 41 29 45 38 30 36 38 37 34 39 36 33 32 32 31 31 31 30 27 28 32 33 35 39 37 31 34 38 38 34 32 28 24 23 22 22 4 11 5 12 2
31 52 22 29 45 41 37 37 43 30 28 27 33 34 31 29 27 28 26 26 24 23 26 29 30 33 36 30 29 35 37 34 31 29 24 20 23 18 18 13 14 15 11 9
Wind_Direction
247 249 251 252 253 257 261 264 266 265 265 263 261 256 248 250 259 267 276 281 284 292 294 301 309 315 316 311 310 306 296 290 284 284 283 280 276 274 274 275 275 272 262 260
249 250 252 255 258 259 261 262 262 261 264 265 265 264 257 253 258 264 274 280 285 290 294 301 308 314 318 313 314 306 296 288 281 278 280 280 280 272 270 274 276 278 270 263
250 249 253 255 257 259 262 260 259 259 260 268 270 267 255 251 255 262 270 275 281 286 293 301 309 311 314 317 313 303 301 298 290 280 271 273 276 269 269 269 270 273 268 272
250 249 252 252 255 258 259 262 260 259 261 262 265 266 256 249 254 257 260 266 276 280 284 297 306 310 312 311 311 305 309 308 302 293 281 273 274 275 269 270 269 269 270 273
252 250 252 255 256 257 259 259 260 260 256 254 260 271 262 251 254 257 258 262 268 272 278 289 300 304 304 307 314 317 314 312 308 303 297 286 279 277 276 276 270 269 272 273
251 252 250 249 250 250 252 252 254 257 260 261 262 262 268 253 255 253 257 260 267 274 283 288 294 297 301 310 315 315 318 315 308 304 294 290 291 284 285 279 277 277 273 274
255 250 255 258 256 253 252 254 254 257 260 265 261 261 266 262 262 263 263 266 271 278 285 289 290 293 302 310 311 313 315 311 308 306 295 289 288 292 287 282 282 282 277 281
249 248 252 256 257 253 250 250 254 259 260 260 257 261 262 257 257 260 259 266 276 277 281 285 291 296 304 305 308 312 311 310 308 304 293 288 290 294 293 287 286 287 286 289
258 249 242 252 254 255 254 255 253 254 256 258 258 259 262 263 260 262 265 270 270 277 280 285 294 298 299 303 308 309 309 308 308 303 297 296 295 295 293 290 289 289 293 293
275 267 252 245 252 253 255 256 252 252 257 256 257 257 259 264 266 269 265 265 273 278 282 287 291 289 295 302 304 306 307 309 312 308 298 296 298 300 296 294 293 293 299 300
269 270 271 265 256 258 260 258 257 257 254 255 255 256 253 258 261 263 268 272 271 272 281 287 284 281 295 299 301 306 308 313 316 307 296 298 301 302 300 297 297 298 304 299
257 261 266 270 270 262 256 255 252 255 254 260 258 252 257 256 260 263 265 263 262 274 281 284 279 289 295 299 303 307 309 312 314 308 298 299 303 304 302 297 299 300 306 303
251 252 258 261 264 265 262 259 255 252 255 252 254 254 253 263 262 266 264 264 269 279 282 282 284 291 297 300 306 308 309 313 314 310 299 298 303 305 302 297 300 299 309 308
253 248 253 259 263 261 260 258 258 254 250 252 250 253 255 252 255 258 263 265 274 286 282 282 285 292 295 301 307 308 309 313 315 311 301 299 304 303 300 299 300 302 310 313
247 246 250 257 257 254 259 258 259 253 251 254 254 251 250 252 249 252 253 263 271 278 276 279 283 291 297 303 309 308 312 315 316 310 303 303 303 301 299 298 300 303 307 308
244 248 249 251 252 250 252 254 253 254 251 251 251 248 256 254 252 252 258 265 268 273 275 282 290 295 298 304 308 310 313 316 316 307 305 305 303 301 301 299 298 301 303 304
245 245 247 250 252 249 248 252 253 257 257 250 254 255 251 249 251 255 259 262 267 273 281 289 293 297 301 309 310 310 314 317 313 308 309 307 305 303 301 298 295 295 296 298
245 241 242 248 251 247 253 247 247 251 256 254 256 254 253 253 255 257 261 268 270 277 285 288 293 297 304 309 309 313 317 317 313 311 311 309 306 304 302 298 293 290 288 283
239 235 229 238 244 251 253 249 246 252 253 244 252 259 259 257 258 259 264 268 269 278 284 287 290 294 305 310 311 316 319 317 314 314 312 309 308 306 304 300 293 287 277 266
234 232 233 239 243 250 246 244 250 253 250 242 247 253 255 256 257 260 263 266 272 278 283 283 287 296 305 309 314 321 320 313 314 317 315 312 309 310 311 307 294 272 267 250
235 233 233 234 239 249 247 236 241 254 255 247 248 247 247 255 257 260 264 268 272 278 285 285 288 297 306 311 317 322 317 313 316 319 318 317 318 321 315 309 295 258 241 234
233 225 230 229 235 240 239 241 243 248 253 248 249 245 242 248 252 257 261 267 272 278 285 287 289 296 308 312 318 322 317 318 322 321 324 324 327 330 332 327 307 200 204 216
227 229 222 222 237 243 242 246 249 242 234 242 243 237 240 247 251 255 261 266 272 280 287 288 293 299 306 312 318 320 318 323 324 323 328 328 339 352 10 24 51 110 187 194
237 213 222 223 226 241 239 244 245 248 243 258 256 240 243 253 254 257 262 268 274 282 287 290 295 303 307 313 320 317 320 324 326 329 329 332 338 354 347 324 295 180 164 170
225 213 211 217 194 224 224 222 227 238 246 247 243 239 244 248 252 256 262 270 278 281 286 290 299 303 310 315 318 315 322 325 327 335 333 329 338 324 357 271 1 232 300 243
221 208 217 191 204 205 210 231 238 232 231 227 235 236 240 245 252 255 263 272 271 277 284 294 299 308 312 317 317 319 325 325 328 337 337 337 342 333 352 320 299 293 269 248
Height
5835 5839 5841 5839 5841 5842 5844 5845 5845 5843 5842 5843 5846 5850 5850 5848 5846 5847 5847 5847 5847 5846 5845 5844 5842 5840 5837 5834 5831 5827 5824 5821 5818 5816 5815 5814 5812 5812 5809 5806 5806 5805 5804 5804
5828 5832 5829 5830 5832 5833 5834 5835 5835 5836 5833 5831 5836 5840 5842 5840 5839 5839 5839 5839 5839 5838 5836 5835 5834 5831 5828 5824 5822 5818 5814 5812 5808 5805 5803 5799 5798 5798 5797 5794 5791 5791 5789 5790
5817 5823 5819 5821 5823 5824 5825 5826 5825 5826 5824 5824 5825 5828 5833 5834 5831 5832 5832 5831 5831 5831 5829 5827 5825 5821 5818 5815 5813 5809 5804 5799 5795 5792 5791 5789 5785 5784 5782 5781 5779 5777 5776 5774
5808 5811 5810 5811 5814 5815 5815 5814 5815 5817 5818 5818 5816 5814 5823 5824 5822 5824 5825 5823 5823 5823 5821 5819 5816 5813 5809 5808 5804 5798 5792 5788 5782 5776 5773 5773 5772 5769 5766 5764 5763 5762 5761 5759
5801 5801 5799 5800 5804 5805 5806 5805 5806 5806 5806 5806 5809 5802 5815 5813 5812 5816 5814 5815 5815 5814 5812 5811 5807 5804 5802 5799 5792 5784 5779 5774 5769 5762 5756 5754 5753 5751 5749 5747 5746 5745 5744 5742
5789 5788 5787 5790 5790 5792 5794 5795 5796 5794 5795 5794 5805 5793 5801 5803 5802 5804 5804 5805 5805 5803 5802 5800 5797 5795 5791 5785 5778 5772 5766 5761 5756 5750 5743 5738 5735 5733 5731 5729 5728 5726 5724 5723
5776 5780 5780 5779 5783 5782 5783 5785 5784 5784 5785 5786 5789 5787 5792 5791 5793 5793 5793 5793 5793 5791 5790 5789 5787 5784 5779 5773 5767 5762 5755 5750 5744 5736 5729 5724 5720 5717 5714 5712 5708 5705 5703 5700
5765 5770 5770 5771 5771 5775 5773 5773 5775 5774 5774 5776 5778 5775 5779 5782 5782 5783 5784 5783 5782 5781 5780 5779 5775 5771 5767 5761 5756 5750 5744 5738 5730 5724 5717 5711 5705 5701 5697 5694 5690 5685 5681 5676
5754 5757 5761 5758 5759 5764 5764 5763 5766 5762 5763 5763 5767 5769 5768 5769 5771 5772 5773 5773 5771 5770 5770 5768 5765 5760 5755 5751 5745 5740 5733 5726 5719 5710 5703 5697 5691 5686 5681 5676 5671 5665 5659 5652
5742 5743 5748 5749 5749 5751 5752 5755 5755 5753 5753 5754 5755 5758 5760 5760 5760 5763 5763 5762 5760 5760 5759 5758 5755 5749 5745 5741 5736 5730 5723 5714 5705 5696 5689 5685 5678 5671 5665 5659 5653 5646 5639 5629
5729 5728 5733 5734 5740 5740 5740 5741 5743 5743 5742 5742 5744 5748 5751 5750 5752 5753 5753 5753 5751 5751 5750 5749 5746 5740 5736 5732 5726 5719 5709 5700 5691 5684 5677 5670 5663 5657 5650 5643 5636 5628 5621 5610
5717 5715 5717 5720 5723 5727 5727 5729 5730 5728 5734 5735 5735 5737 5739 5741 5743 5745 5746 5742 5742 5743 5742 5740 5735 5730 5727 5721 5714 5706 5696 5688 5679 5671 5663 5657 5650 5643 5636 5629 5622 5613 5605 5594
5705 5698 5703 5707 5711 5714 5712 5715 5719 5720 5719 5721 5723 5727 5734 5734 5734 5734 5732 5730 5734 5734 5732 5728 5723 5720 5715 5708 5701 5694 5684 5675 5667 5659 5651 5645 5638 5631 5623 5615 5608 5599 5592 5583
5689 5684 5687 5691 5700 5700 5702 5703 5705 5708 5705 5710 5712 5718 5720 5725 5724 5723 5720 5719 5723 5724 5721 5716 5712 5710 5704 5697 5691 5683 5674 5665 5656 5647 5639 5632 5625 5618 5611 5603 5595 5587 5581 5573
5668 5668 5673 5679 5683 5684 5686 5691 5691 5693 5699 5694 5706 5706 5710 5713 5715 5713 5710 5714 5716 5714 5711 5707 5705 5701 5694 5688 5681 5672 5662 5652 5644 5634 5627 5620 5613 5606 5599 5591 5583 5576 5571 5565
5650 5653 5659 5658 5666 5669 5669 5675 5678 5679 5684 5685 5686 5693 5698 5701 5702 5704 5705 5706 5705 5703 5700 5698 5695 5690 5683 5678 5670 5661 5652 5641 5631 5623 5616 5609 5601 5594 5587 5579 5572 5566 5561 5557
5633 5638 5642 5639 5650 5650 5647 5663 5670 5670 5672 5675 5676 5685 5686 5688 5692 5693 5693 5694 5694 5691 5690 5687 5683 5678 5673 5667 5659 5651 5640 5630 5620 5612 5604 5596 5588 5582 5574 5567 5560 5554 5551 5549
5617 5623 5625 5624 5629 5624 5640 5647 5653 5655 5661 5666 5666 5668 5673 5678 5680 5681 5683 5683 5682 5682 5680 5677 5673 5669 5664 5658 5649 5640 5629 5619 5610 5601 5592 5584 5576 5569 5560 5552 5546 5541 5540 5539
5596 5604 5606 5606 5608 5616 5625 5636 5639 5641 5647 5654 5657 5660 5664 5666 5669 5671 5673 5673 5673 5673 5671 5668 5665 5661 5656 5648 5640 5630 5619 5609 5600 5590 5581 5572 5563 5554 5544 5535 5529 5527 5528 5529
5574 5582 5585 5593 5593 5598 5623 5623 5628 5631 5629 5641 5647 5651 5654 5656 5657 5662 5663 5663 5664 5663 5662 5660 5656 5652 5647 5639 5630 5619 5609 5601 5592 5581 5570 5560 5549 5539 5530 5520 5513 5514 5517 5520
5553 5561 5566 5579 5582 5589 5609 5615 5620 5615 5630 5633 5636 5641 5644 5646 5649 5652 5652 5654 5654 5654 5652 5650 5646 5642 5637 5629 5620 5610 5601 5593 5583 5572 5562 5550 5539 5530 5518 5503 5494 5498 5506 5512
5540 5548 5557 5569 5573 5578 5598 5600 5607 5614 5613 5621 5625 5631 5633 5637 5641 5643 5643 5645 5645 5644 5643 5640 5636 5633 5628 5620 5612 5603 5594 5587 5576 5565 5555 5544 5535 5526 5508 5495 5492 5494 5500 5505
5530 5537 5545 5553 5565 5576 5583 5591 5598 5600 5604 5610 5615 5618 5622 5628 5631 5633 5635 5635 5635 5635 5634 5630 5628 5625 5619 5612 5605 5596 5589 5581 5570 5560 5551 5542 5535 5525 5515 5507 5504 5502 5501 5503
5521 5529 5537 5548 5558 5563 5572 5578 5584 5591 5596 5601 5604 5610 5615 5620 5621 5624 5625 5626 5626 5626 5625 5623 5620 5617 5611 5604 5596 5589 5583 5575 5566 5557 5548 5540 5535 5528 5521 5514 5509 5505 5504 5507
5515 5522 5530 5539 5544 5554 5562 5568 5576 5582 5587 5590 5594 5601 5607 5610 5613 5615 5617 5618 5618 5618 5616 5615 5613 5609 5603 5596 5590 5585 5578 5570 5562 5553 5545 5538 5533 5528 5524 5518 5512 5510 5508 5507
5508 5515 5524 5529 5535 5541 5553 5560 5567 5574 5578 5583 5587 5594 5599 5602 5604 5606 5609 5610 5611 5611 5610 5608 5605 5602 5596 5590 5585 5580 5573 5565 5558 5550 5542 5537 5532 5526 5525 5520 5514 5512 5507 5506